WB4FAY-4 Weather Reports


Display with metric or nautical units.
time (UTC)temp
F
wind
direction
speed
MPH
gust
MPH
rain 1hr
in
rain 24hr
in
rain mn
in
humidity
%
barometer
mb
20210619151634 71 100 1.0 6.0 0.00 0.00 0.09 89 1017.0
20210619151133 71 80 2.0 5.0 0.00 0.00 0.07 89 1016.9
20210619150634 71 78 2.0 4.0 0.00 0.00 0.05 89 1017.0
20210619150134 71 78 1.0 4.0 0.00 0.00 0.04 89 1017.1
20210619145634 71 76 2.0 5.0 0.00 0.00 0.02 89 1017.2
20210619145134 71 76 1.0 5.0 0.00 0.00 0.00 89 1017.4
20210619144634 71 27 1.0 4.0 0.00 0.00 0.00 88 1017.7
20210619144134 71 47 3.0 4.0 0.00 0.00 0.00 88 1017.9
20210619143634 72 35 3.0 3.0 0.00 0.00 0.00 88 1018.0
20210619143134 72 104 1.0 4.0 0.00 0.00 0.00 88 1018.1
20210619142633 72 54 0.0 3.0 0.00 0.00 0.00 88 1018.1
20210619142134 72 346 1.0 4.0 0.00 0.00 0.00 88 1018.1
20210619141634 73 65 1.0 2.0 0.00 0.00 0.00 87 1017.9
20210619141133 73 337 2.0 2.0 0.00 0.00 0.00 87 1018.0
20210619140634 73 51 0.0 2.0 0.00 0.00 0.00 87 1018.0
20210619140134 73 6 0.0 1.0 0.00 0.00 0.00 87 1017.9
20210619135634 73 47 1.0 3.0 0.00 0.00 0.00 87 1018.0
20210619135134 73 0 0.0 0.0 0.00 0.00 0.00 87 1017.9
20210619134634 73 0 0.0 0.0 0.00 0.00 0.00 87 1017.8
20210619134134 74 0 0.0 0.0 0.00 0.00 0.00 87 1017.7
20210619133634 73 0 0.0 0.0 0.00 0.00 0.00 86 1017.5
20210619133134 74 0 0.0 0.0 0.00 0.00 0.00 86 1017.4
20210619132634 74 0 0.0 0.0 0.00 0.00 0.00 86 1017.3
20210619132133 74 0 0.0 0.0 0.00 0.00 0.00 86 1017.3
20210619131634 74 0 0.0 0.0 0.00 0.00 0.00 86 1017.1
20210619131134 74 0 0.0 0.0 0.00 0.00 0.00 85 1017.1
20210619130634 74 0 0.0 0.0 0.00 0.00 0.00 85 1017.0
20210619130134 74 0 0.0 0.0 0.00 0.00 0.00 85 1016.9
20210619125634 74 0 0.0 0.0 0.00 0.00 0.00 84 1016.9
20210619125133 74 0 0.0 0.0 0.00 0.00 0.00 84 1016.9
20210619124634 74 339 0.0 2.0 0.00 0.00 0.00 84 1016.9
20210619124134 74 320 0.0 2.0 0.00 0.00 0.00 83 1016.9
20210619123633 74 339 0.0 2.0 0.00 0.00 0.00 83 1017.0
20210619123134 74 95 2.0 2.0 0.00 0.00 0.00 83 1017.1
20210619122634 74 0 0.0 0.0 0.00 0.00 0.00 82 1017.2
20210619122134 74 0 0.0 0.0 0.00 0.00 0.00 82 1017.3
20210619121634 75 0 0.0 0.0 0.00 0.00 0.00 82 1017.4
20210619121135 74 0 0.0 0.0 0.00 0.00 0.00 82 1017.5
20210619120634 74 0 0.0 0.0 0.00 0.00 0.00 82 1017.9
20210619120135 74 85 0.0 1.0 0.00 0.00 0.00 82 1017.9
20210619115635 74 88 0.0 2.0 0.00 0.00 0.00 82 1018.0
20210619115134 74 90 0.0 2.0 0.00 0.00 0.00 82 1018.1
20210619114634 74 0 0.0 0.0 0.00 0.00 0.00 82 1018.0
20210619114135 74 93 0.0 4.0 0.00 0.00 0.00 82 1018.0
20210619113634 74 99 1.0 2.0 0.00 0.00 0.00 83 1018.0
20210619113134 74 168 0.0 3.0 0.00 0.00 0.00 83 1018.0
20210619112634 74 35 1.0 3.0 0.00 0.00 0.00 83 1017.9
20210619112134 74 44 1.0 4.0 0.00 0.00 0.00 83 1017.8
20210619111634 74 340 1.0 4.0 0.00 0.00 0.00 84 1017.7
20210619111134 74 13 2.0 4.0 0.00 0.00 0.00 84 1017.5
20210619110634 74 332 0.0 2.0 0.00 0.00 0.00 84 1017.4
20210619110134 74 330 0.0 2.0 0.00 0.00 0.00 84 1017.2
20210619105634 74 0 0.0 0.0 0.00 0.00 0.00 84 1017.0
20210619105134 74 349 0.0 2.0 0.00 0.00 0.00 83 1016.9
20210619104634 74 349 0.0 2.0 0.00 0.00 0.00 83 1016.9
20210619104134 74 360 0.0 0.0 0.00 0.00 0.00 83 1016.9
20210619103634 74 6 0.0 1.0 0.00 0.00 0.00 83 1016.9
20210619103134 74 47 0.0 1.0 0.00 0.00 0.00 83 1016.8
20210619102633 74 0 0.0 0.0 0.00 0.00 0.00 83 1016.8
20210619102134 74 0 0.0 0.0 0.00 0.00 0.00 83 1016.6
20210619101634 74 0 0.0 0.0 0.00 0.00 0.00 83 1016.8
20210619101134 74 0 0.0 0.0 0.00 0.00 0.00 83 1016.8
20210619100634 74 80 0.0 1.0 0.00 0.00 0.00 83 1016.8
20210619100133 74 59 1.0 1.0 0.00 0.00 0.00 83 1016.8
20210619095633 74 0 0.0 0.0 0.00 0.00 0.00 83 1016.7
20210619095134 74 0 0.0 0.0 0.00 0.00 0.00 83 1016.6
20210619094633 74 0 0.0 0.0 0.00 0.00 0.00 83 1016.6
20210619094133 74 0 0.0 0.0 0.00 0.00 0.00 83 1016.7
20210619093634 74 0 0.0 0.0 0.00 0.00 0.00 82 1016.7
20210619093134 74 0 0.0 0.0 0.00 0.00 0.00 82 1016.6
20210619092633 74 0 0.0 0.0 0.00 0.00 0.00 82 1016.5
20210619092134 74 0 0.0 0.0 0.00 0.00 0.00 82 1016.6
20210619091633 74 0 0.0 0.0 0.00 0.00 0.00 82 1016.7
20210619091134 74 0 0.0 0.0 0.00 0.00 0.00 82 1016.8
20210619090633 74 0 0.0 0.0 0.00 0.00 0.00 82 1016.8
20210619090133 74 0 0.0 0.0 0.00 0.00 0.00 82 1016.9
20210619085634 74 0 0.0 0.0 0.00 0.00 0.00 82 1017.0
20210619085134 74 0 0.0 0.0 0.00 0.00 0.00 82 1017.0
20210619084633 74 0 0.0 0.0 0.00 0.00 0.00 82 1017.1
20210619084134 74 0 0.0 0.0 0.00 0.00 0.00 82 1017.1
20210619083634 74 0 0.0 0.0 0.00 0.00 0.00 82 1017.1
20210619083134 74 0 0.0 0.0 0.00 0.00 0.00 82 1017.1
20210619082634 74 0 0.0 0.0 0.00 0.00 0.00 82 1017.0
20210619082133 75 0 0.0 0.0 0.00 0.00 0.00 82 1017.1
20210619081634 75 0 0.0 0.0 0.00 0.00 0.00 82 1017.2
20210619081134 75 0 0.0 0.0 0.00 0.00 0.00 82 1017.2
20210619080633 75 0 0.0 0.0 0.00 0.00 0.00 81 1017.2
20210619080133 75 0 0.0 0.0 0.00 0.00 0.00 81 1017.3
20210619075634 75 0 0.0 0.0 0.00 0.00 0.00 81 1017.3
20210619075134 75 8 0.0 1.0 0.00 0.00 0.00 81 1017.4
20210619074633 75 7 0.0 1.0 0.00 0.00 0.00 81 1017.3
20210619074133 75 195 0.0 0.0 0.00 0.00 0.00 81 1017.4
20210619073634 75 0 0.0 0.0 0.00 0.00 0.00 81 1017.5
20210619073134 75 0 0.0 0.0 0.00 0.00 0.00 80 1017.7
20210619072634 75 0 0.0 0.0 0.00 0.00 0.00 80 1017.8
20210619072134 75 0 0.0 0.0 0.00 0.00 0.00 80 1017.8
20210619071634 75 0 0.0 0.0 0.00 0.00 0.00 80 1017.8
20210619071133 75 0 0.0 0.0 0.00 0.00 0.00 80 1017.8
20210619070634 75 0 0.0 0.0 0.00 0.00 0.00 79 1017.7
20210619070134 75 0 0.0 0.0 0.00 0.00 0.00 79 1017.7
20210619065634 76 0 0.0 0.0 0.00 0.00 0.00 79 1017.7
20210619065134 76 0 0.0 0.0 0.00 0.00 0.00 79 1017.7
20210619064633 76 0 0.0 0.0 0.00 0.00 0.00 78 1017.7
20210619064134 76 0 0.0 0.0 0.00 0.00 0.00 78 1017.8
20210619063634 76 217 0.0 2.0 0.00 0.00 0.00 78 1017.7
20210619063133 76 244 0.0 1.0 0.00 0.00 0.00 78 1017.7
20210619062634 76 0 1.0 0.0 0.00 0.00 0.00 78 1017.7
20210619062133 76 222 0.0 1.0 0.00 0.00 0.00 78 1017.7
20210619061634 76 0 0.0 0.0 0.00 0.00 0.00 77 1017.8
20210619061134 76 0 0.0 0.0 0.00 0.00 0.00 77 1017.9
20210619060634 77 0 0.0 0.0 0.00 0.00 0.00 77 1017.9
20210619060134 77 0 0.0 0.0 0.00 0.00 0.00 76 1017.9
20210619055634 77 0 0.0 0.0 0.00 0.00 0.00 76 1018.0
20210619055133 77 164 0.0 0.0 0.00 0.00 0.00 76 1017.9
20210619054634 77 0 0.0 0.0 0.00 0.00 0.00 76 1018.0
20210619054134 77 196 0.0 2.0 0.00 0.00 0.00 76 1017.9
20210619053633 77 0 1.0 0.0 0.00 0.00 0.00 76 1018.0
20210619053134 77 198 0.0 1.0 0.00 0.00 0.00 76 1018.0
20210619052634 77 189 1.0 2.0 0.00 0.00 0.00 76 1018.0
20210619052133 77 224 0.0 1.0 0.00 0.00 0.00 75 1018.1
20210619051634 77 0 0.0 0.0 0.00 0.00 0.00 75 1018.2
20210619051133 77 189 0.0 1.0 0.00 0.00 0.00 75 1018.4
20210619050636 77 206 0.0 0.0 0.00 0.00 0.00 74 1018.3
20210619050134 77 199 0.0 1.0 0.00 0.00 0.00 74 1018.3
20210619045633 78 0 0.0 0.0 0.00 0.00 0.00 73 1018.3
20210619045134 78 0 0.0 0.0 0.00 0.00 0.00 73 1018.1
20210619044634 78 184 0.0 2.0 0.00 0.00 0.00 73 1018.2
20210619044134 78 288 0.0 3.0 0.00 0.00 0.00 73 1018.3
20210619043637 78 209 0.0 3.0 0.00 0.00 0.00 73 1018.2
20210619043134 78 277 1.0 1.0 0.00 0.00 0.00 73 1018.2
20210619042634 78 236 0.0 2.0 0.00 0.00 0.00 72 1018.2
20210619042134 77 210 1.0 3.0 0.00 0.00 0.00 72 1018.1
20210619041634 77 199 0.0 2.0 0.00 0.00 0.00 72 1017.9
20210619041133 77 0 1.0 0.0 0.00 0.00 0.00 72 1018.2
20210619040634 77 0 0.0 0.0 0.00 0.00 0.00 71 1018.4
20210619040133 78 0 0.0 0.0 0.00 0.00 0.00 71 1018.4
20210619035633 78 0 0.0 0.0 0.00 0.00 0.00 70 1018.4
20210619035134 78 0 0.0 0.0 0.00 0.00 0.00 70 1018.5
20210619034634 78 0 0.0 0.0 0.00 0.00 0.00 69 1018.4
20210619034134 78 0 0.0 0.0 0.00 0.00 0.00 69 1018.5
20210619033634 78 0 0.0 0.0 0.00 0.00 0.00 69 1018.6
20210619033134 78 0 0.0 0.0 0.00 0.00 0.00 68 1018.6
20210619032633 78 0 0.0 0.0 0.00 0.00 0.00 68 1018.7
20210619032134 78 0 0.0 0.0 0.00 0.00 0.00 68 1018.7
20210619031634 78 0 0.0 0.0 0.00 0.00 0.00 68 1018.7
20210619031133 78 0 0.0 0.0 0.00 0.00 0.00 68 1018.7
20210619030633 79 0 0.0 0.0 0.00 0.00 0.00 68 1018.7
20210619030133 78 206 0.0 1.0 0.00 0.00 0.00 68 1018.6
20210619025634 78 0 0.0 0.0 0.00 0.00 0.00 68 1018.6
20210619025133 78 215 0.0 1.0 0.00 0.00 0.00 68 1018.5
20210619024633 78 175 0.0 1.0 0.00 0.00 0.00 68 1018.5
20210619024134 78 0 0.0 0.0 0.00 0.00 0.00 68 1018.4
20210619023634 79 0 0.0 0.0 0.00 0.00 0.00 68 1018.3
20210619023133 79 0 0.0 0.0 0.00 0.00 0.00 67 1018.3
20210619022634 79 0 0.0 0.0 0.00 0.00 0.00 67 1018.3
20210619022134 79 0 0.0 0.0 0.00 0.00 0.00 67 1018.2
20210619021633 79 0 0.0 0.0 0.00 0.00 0.00 66 1018.2
20210619021134 79 0 0.0 0.0 0.00 0.00 0.00 66 1018.1
20210619020634 79 0 0.0 0.0 0.00 0.00 0.00 65 1018.1
20210619020133 79 198 0.0 1.0 0.00 0.00 0.00 65 1018.1
20210619015634 79 205 0.0 2.0 0.00 0.00 0.00 65 1018.0
20210619015133 79 182 0.0 2.0 0.00 0.00 0.00 65 1018.1
20210619014633 79 195 1.0 5.0 0.00 0.00 0.00 65 1018.0
20210619014134 79 195 3.0 3.0 0.00 0.00 0.00 65 1017.9
20210619013634 79 311 1.0 2.0 0.00 0.00 0.00 66 1017.9
20210619013134 79 195 0.0 4.0 0.00 0.00 0.00 65 1017.8
20210619012634 79 213 3.0 2.0 0.00 0.00 0.00 66 1017.8
20210619012134 80 226 2.0 3.0 0.00 0.00 0.00 65 1017.7
20210619011634 80 205 1.0 1.0 0.00 0.00 0.00 65 1017.8
20210619011134 80 196 0.0 5.0 0.00 0.00 0.00 64 1017.8
20210619010634 80 186 1.0 6.0 0.00 0.00 0.00 64 1017.8
20210619010134 80 202 2.0 4.0 0.00 0.00 0.00 65 1017.8
20210619005634 80 171 2.0 6.0 0.00 0.00 0.00 65 1017.8
20210619005134 80 302 0.0 4.0 0.00 0.00 0.00 65 1017.8
20210619004633 80 302 0.0 3.0 0.00 0.00 0.00 65 1017.8
20210619004134 81 188 0.0 4.0 0.00 0.00 0.00 65 1017.8
20210619003634 81 196 1.0 3.0 0.00 0.00 0.00 64 1017.8
20210619003133 81 193 1.0 3.0 0.00 0.00 0.00 64 1017.9
20210619002634 82 186 1.0 5.0 0.00 0.00 0.00 63 1017.9
20210619002133 82 192 1.0 4.0 0.00 0.00 0.00 62 1017.8
20210619001633 82 315 2.0 5.0 0.00 0.00 0.00 61 1017.8
20210619001134 82 181 3.0 9.0 0.00 0.00 0.00 60 1017.7
20210619000634 83 200 2.0 8.0 0.00 0.00 0.00 60 1017.8
20210619000133 83 185 2.0 8.0 0.00 0.00 0.00 59 1017.8
20210618235634 83 196 0.0 8.0 0.00 0.00 0.00 59 1017.5
20210618235134 83 0 0.0 0.0 0.00 0.00 0.00 60 1017.4
20210618234633 83 0 0.0 0.0 0.00 0.00 0.00 60 1017.4
20210618234134 84 0 0.0 0.0 0.00 0.00 0.00 60 1017.4
20210618233634 84 0 0.0 0.0 0.00 0.00 0.00 60 1017.5
20210618233134 84 0 0.0 0.0 0.00 0.00 0.00 60 1017.5
20210618232634 84 0 0.0 0.0 0.00 0.00 0.00 59 1017.5
20210618232134 84 0 0.0 0.0 0.00 0.00 0.00 59 1017.5
20210618231634 84 0 0.0 0.0 0.00 0.00 0.00 59 1017.7
20210618231134 84 0 0.0 0.0 0.00 0.00 0.00 58 1017.7
20210618230634 84 0 0.0 0.0 0.00 0.00 0.00 56 1017.7
20210618230134 84 0 0.0 0.0 0.00 0.00 0.00 56 1017.5
20210618225633 85 0 0.0 0.0 0.00 0.00 0.00 55 1017.5
20210618225133 85 0 0.0 0.0 0.00 0.00 0.00 54 1017.7
20210618224634 85 0 0.0 0.0 0.00 0.00 0.00 53 1017.7
20210618224133 85 0 0.0 0.0 0.00 0.00 0.00 53 1017.7
20210618223634 85 0 0.0 0.0 0.00 0.00 0.00 52 1017.8
20210618223133 85 0 0.0 0.0 0.00 0.00 0.00 52 1017.7
20210618222634 86 0 0.0 0.0 0.00 0.00 0.00 51 1017.8
20210618222134 86 1 0.0 1.0 0.00 0.00 0.00 51 1017.9
20210618221634 86 316 0.0 2.0 0.00 0.00 0.00 50 1017.9
20210618221134 87 0 0.0 0.0 0.00 0.00 0.00 48 1018.0
20210618220634 87 267 0.0 2.0 0.00 0.00 0.00 48 1018.0
20210618220134 88 0 0.0 0.0 0.00 0.00 0.00 45 1018.0
20210618215634 88 0 0.0 0.0 0.00 0.00 0.00 46 1017.9
20210618215133 87 0 0.0 0.0 0.00 0.00 0.00 48 1018.1
20210618214634 87 0 0.0 0.0 0.00 0.00 0.00 50 1018.1
20210618214133 87 0 0.0 0.0 0.00 0.00 0.00 48 1018.1
20210618213633 87 0 0.0 0.0 0.00 0.00 0.00 48 1018.1
20210618213134 88 0 0.0 0.0 0.00 0.00 0.00 45 1018.1
20210618212634 88 0 0.0 0.0 0.00 0.00 0.00 46 1018.1
20210618212133 89 271 0.0 3.0 0.00 0.00 0.00 43 1018.1
20210618211633 89 72 0.0 4.0 0.00 0.00 0.00 45 1018.1
20210618211134 88 89 3.0 4.0 0.00 0.00 0.00 43 1018.1
20210618210633 88 237 2.0 4.0 0.00 0.00 0.00 45 1018.1
20210618210134 87 0 2.0 0.0 0.00 0.00 0.00 45 1018.0
20210618205635 87 234 0.0 3.0 0.00 0.00 0.00 46 1018.1
20210618205135 87 272 0.0 2.0 0.00 0.00 0.00 45 1018.1
20210618204635 88 347 1.0 2.0 0.00 0.00 0.00 46 1018.1
20210618204134 88 114 2.0 4.0 0.00 0.00 0.00 43 1018.1
20210618203634 89 102 0.0 6.0 0.00 0.00 0.00 43 1018.0
20210618203134 88 58 1.0 6.0 0.00 0.00 0.00 44 1017.9
20210618202634 88 0 3.0 0.0 0.00 0.00 0.00 44 1018.0
20210618202134 88 34 0.0 7.0 0.00 0.00 0.00 49 1018.0
20210618201634 89 32 0.0 2.0 0.00 0.00 0.00 44 1018.0
20210618201134 88 110 0.0 3.0 0.00 0.00 0.00 44 1017.9
20210618200634 88 291 2.0 3.0 0.00 0.00 0.00 42 1018.0
20210618200134 89 284 0.0 4.0 0.00 0.00 0.00 43 1018.0
20210618195634 89 68 0.0 2.0 0.00 0.00 0.00 41 1018.0
20210618195134 89 65 1.0 4.0 0.00 0.00 0.00 40 1018.1
20210618194634 88 45 1.0 3.0 0.00 0.00 0.00 41 1018.1
20210618194134 88 113 0.0 1.0 0.00 0.00 0.00 43 1018.2
20210618193633 88 0 0.0 0.0 0.00 0.00 0.00 42 1018.2
20210618193134 88 0 0.0 0.0 0.00 0.00 0.00 43 1018.1
20210618192633 88 158 0.0 3.0 0.00 0.00 0.00 46 1018.0
20210618192139 88 175 0.0 3.0 0.00 0.00 0.00 42 1018.0
20210618191634 87 260 0.0 2.0 0.00 0.00 0.00 42 1018.0
20210618191134 87 162 0.0 4.0 0.00 0.00 0.00 42 1018.0
20210618190633 88 145 1.0 4.0 0.00 0.00 0.00 41 1018.0
20210618190134 87 198 2.0 2.0 0.00 0.00 0.00 43 1018.1
20210618185633 88 185 0.0 2.0 0.00 0.00 0.00 41 1018.0
20210618185134 88 192 0.0 1.0 0.00 0.00 0.00 41 1018.0
20210618184634 87 199 0.0 5.0 0.00 0.00 0.00 42 1018.0
20210618184133 87 189 0.0 3.0 0.00 0.00 0.00 43 1018.1
20210618183634 87 196 1.0 4.0 0.00 0.00 0.00 39 1018.1
20210618183133 88 222 0.0 2.0 0.00 0.00 0.00 39 1018.2
20210618182634 88 38 0.0 3.0 0.00 0.00 0.00 42 1018.3
20210618182134 88 48 0.0 3.0 0.00 0.00 0.00 37 1018.4
20210618181634 88 72 1.0 5.0 0.00 0.00 0.00 41 1018.5
20210618181133 88 62 1.0 4.0 0.00 0.00 0.00 39 1018.5
20210618180634 89 158 0.0 1.0 0.00 0.00 0.00 40 1018.4
20210618180133 89 80 0.0 4.0 0.00 0.00 0.00 39 1018.4
20210618175635 89 64 0.0 3.0 0.00 0.00 0.00 39 1018.5
20210618175133 89 71 0.0 5.0 0.00 0.00 0.00 38 1018.5
20210618174633 88 72 3.0 8.0 0.00 0.00 0.00 38 1018.5
20210618174134 88 0 0.0 0.0 0.00 0.00 0.00 38 1018.5
20210618173633 88 349 0.0 3.0 0.00 0.00 0.00 44 1018.6
20210618173133 89 272 2.0 3.0 0.00 0.00 0.00 41 1018.7
20210618172634 89 68 0.0 6.0 0.00 0.00 0.00 40 1018.8
20210618172133 88 106 0.0 3.0 0.00 0.00 0.00 41 1018.8
20210618171634 88 68 0.0 3.0 0.00 0.00 0.00 41 1019.0
20210618171134 87 258 0.0 3.0 0.00 0.00 0.00 44 1019.0
20210618170634 87 181 0.0 0.0 0.00 0.00 0.00 40 1019.1
20210618170134 87 110 0.0 3.0 0.00 0.00 0.00 40 1019.1
20210618165639 86 0 1.0 0.0 0.00 0.00 0.00 43 1019.1
20210618165135 86 280 0.0 2.0 0.00 0.00 0.00 42 1019.1
20210618164635 87 0 0.0 0.0 0.00 0.00 0.00 39 1019.1
20210618164135 87 0 0.0 0.0 0.00 0.00 0.00 40 1019.2
20210618163635 87 90 0.0 8.0 0.00 0.00 0.00 40 1019.3
20210618163135 86 0 0.0 0.0 0.00 0.00 0.00 41 1019.3
20210618162635 86 0 0.0 0.0 0.00 0.00 0.00 41 1019.3
20210618162135 87 85 0.0 4.0 0.00 0.00 0.00 42 1019.2
20210618161635 86 59 3.0 4.0 0.00 0.00 0.00 42 1019.2
20210618161135 86 54 0.0 2.0 0.00 0.00 0.00 45 1019.2
20210618160635 86 80 0.0 3.0 0.00 0.00 0.00 47 1019.2
20210618160134 86 93 0.0 4.0 0.00 0.00 0.00 44 1019.2
20210618155634 85 0 0.0 0.0 0.00 0.00 0.00 43 1019.2
20210618155135 85 42 0.0 3.0 0.00 0.00 0.00 45 1019.2
20210618154634 85 0 0.0 0.0 0.00 0.00 0.00 44 1019.2
20210618154134 85 0 0.0 0.0 0.00 0.00 0.00 43 1019.1
20210618153634 85 102 0.0 6.0 0.00 0.00 0.00 46 1019.1
20210618153134 84 82 3.0 6.0 0.00 0.00 0.00 47 1019.1
20210618152634 84 292 0.0 3.0 0.00 0.00 0.00 52 1019.1
20210618152134 84 44 2.0 2.0 0.00 0.00 0.00 55 1019.1